Regional Weather Roundup
Issued by NWS Midland/Odessa, TX

Skip options and go directly to product.
Home | Oldest Version | Next Version | Current Version | All | Text Only | Save Text | Print | Product List | Glossary On

Skip product version selection by date and time.   
552
ASUS44 KMAF 252102
RWRMAF
MIDLAND AREA WEATHER ROUNDUP
NATIONAL WEATHER SERVICE MIDLAND TX
300 PM CST TUE NOV 25 2014

...IN SOUTHWEST TEXAS AND SOUTHEAST NEW MEXICO...

CITY           SKY/WX    TMP DP  RH WIND       PRES   REMARKS
ALPINE         SUNNY     54   6  14 SW15G21   30.35F
ANDREWS        FAIR      54  14  20 W16G22    30.23F
ARTESIA        NOT AVBL
BIG SPRING     SUNNY     58  20  22 SW13      30.26F
CARLSBAD       SUNNY     59   9  13 SW15      30.20F
DRYDEN           N/A     63  11  13 W8G16     30.26F
FORT STOCKTON  SUNNY     55  16  21 SW9G17    30.28F
GUAD PASS      NOT AVBL
HOBBS          SUNNY     54  10  17 SW21      30.21F
MARFA          SUNNY     52   5  15 W14G20    30.32F
MIDLAND AIRPK  SUNNY     56  19  23 W14G22    30.25F
MIDLAND INTL   SUNNY     55  15  20 W17       30.24F
ODESSA         SUNNY     54  13  19 W17G28    30.24F
PECOS          SUNNY     57  14  18 SW12G20   30.29F
PRESIDIO       FAIR      56  13  18 CALM      30.34F
SEMINOLE       SUNNY     54  13  19 W18G26    30.23F
SNYDER         SUNNY     54  24  31 SW17      30.22F
WINK           SUNNY     56  12  17 SW15      30.25F
$$
...OTHER STATIONS IN TEXAS...

CITY           SKY/WX    TMP DP  RH WIND       PRES   REMARKS
ABILENE        SUNNY     58  26  29 S7        30.21F
AMARILLO       MOSUNNY   53  12  19 SW23G33   30.05F
AUSTIN         MOSUNNY   66  26  22 W6        30.23F
BROWNSVILLE    SUNNY     68  42  38 N15G24    30.28S
CORPUS CHRISTI MOSUNNY   68  29  23 N8        30.28F
DALLAS FTW     MOSUNNY   60  26  27 W10       30.17F
DEL RIO        SUNNY     64  27  24 W10       30.26F
EL PASO        SUNNY     53   9  17 W8        30.33F
HOUSTON INT    MOSUNNY   65  25  22 NW12      30.23F
LUBBOCK        MOSUNNY   54  14  20 SW22G33   30.12F
SAN ANGELO     SUNNY     62  20  19 W17G23    30.22F
SAN ANTONIO    MOSUNNY   67  25  20 SW13G20   30.25F
WACO           SUNNY     65  25  22 W13       30.20F
WICHITA FALLS  NOT AVBL
$$
...OTHER LOCATIONS IN NEW MEXICO...

CITY           SKY/WX    TMP DP  RH WIND       PRES   REMARKS
ALAMAGORDO     SUNNY     50   5  16 CALM      30.33F
ALBUQUERQUE    MOSUNNY   47   3  16 NW9       30.30F
CANNON AFB     SUNNY     54   3  13 W28G38    30.07F
CLOVIS         MOSUNNY   54   7  15 W28G36    30.06F
HOLLOMAN AFB   MOSUNNY   52   6  15 VRB1      30.32F
ROSWELL        SUNNY     58   9  14 SW9       30.17F
RUIDOSO        SUNNY     45 -13   8 NW25G40   30.22F WCI  35
SANTA FE       SUNNY     43   8  23 N13       30.24F WCI  36
TRUTH OR CONSE SUNNY     51  -3  10 S12       30.29F
TUCUMCARI      MOSUNNY   54  10  17 W26G33    30.03F
$$

USA.gov is the U.S. government's official web portal to all federal, state and local government web resources and services.